Courtland, AL

10:26 AM CST on February 06, 2016 (GMT -0600)
Courtland

Weather History for K9A4 - October, 2011

Change the Weather History Date:

Saturday, October 29, 2011

  Actual Average (KMSL) Record (KMSL)
Temperature  
Mean Temperature 46 °F 58 °F  
Max Temperature 60 °F 70 °F 88 °F (1940)
Min Temperature 32 °F 46 °F 26 °F (1939)
Degree Days  
Heating Degree Days 19 8  
Month to date heating degree days 138  
Since 1 July heating degree days 153  
Cooling Degree Days 0 1  
Month to date cooling degree days 59  
Year to date cooling degree days 1861  
Moisture  
Dew Point 34 °F    
Average Humidity 75    
Maximum Humidity 100    
Minimum Humidity 29    
Precipitation  
Precipitation 0.00 in 0.12 in 1.12 in (1970)
Month to date precipitation 3.19  
Year to date precipitation 42.62  
Snow  
Snow 0.00 in - - ()
Month to date snowfall  
Since 1 July snowfall  
Since 1 September snowfall  
Snow Depth -    
Sea Level Pressure  
Sea Level Pressure 30.17 in    
Wind  
Wind Speed 3 mph (NW)    
Max Wind Speed 12 mph    
Max Gust Speed 18 mph    
Visibility 10 miles    
Events      
T = Trace of Precipitation, MM = Missing Value Source: NWS Daily Summary

Daily Weather History Graph

Daily Weather History Graph

Search for Another Location

Airport or City:

Trip Planner

Search our weather history database for the weather conditions in past years. The results will help you decide how hot, cold, wet, or windy it might be!

Date:

Astronomy

Oct. 29, 2011 Rise Set
Actual Time 7:06 AM CDT 5:58 PM CDT
Civil Twilight 6:40 AM CDT 6:24 PM CDT
Nautical Twilight 6:11 AM CDT 6:54 PM CDT
Astronomical Twilight 5:41 AM CDT 7:23 PM CDT
Moon 10:20 AM CDT (10/29) 8:29 PM CDT (10/29)
Length of Visible Light 11h 43m
Length of Day
10h 51m
Waxing Crescent, 12% of the Moon is Illuminated
Oct 29
Waxing Crescent
Nov 2
First Quarter
Nov 10
Full
Nov 18
Last Quarter
Nov 25
New

Hourly Weather History & Observations

Time (CDT) Temp. Windchill Dew Point Humidity Pressure Visibility Wind Dir Wind Speed Gust Speed Precip Events Conditions
12:15 AM 41.0 °F 37.1 °F 37.4 °F 87% 30.14 in 10.0 mi NNW 5.8 mph - N/A   Clear
12:35 AM 39.2 °F 35.9 °F 37.4 °F 93% 30.14 in 10.0 mi NNW 4.6 mph - N/A   Clear
1:15 AM 37.4 °F 32.1 °F 35.6 °F 93% 30.16 in 10.0 mi NW 6.9 mph - N/A   Clear
1:35 AM 37.4 °F 33.8 °F 35.6 °F 93% 30.16 in 10.0 mi NNW 4.6 mph - N/A   Clear
1:55 AM 35.6 °F 30.7 °F 35.6 °F 100% 30.16 in 10.0 mi NNW 5.8 mph - N/A   Clear
2:15 AM 35.6 °F 30.7 °F 35.6 °F 100% 30.16 in 10.0 mi NW 5.8 mph - N/A   Clear
2:35 AM 35.6 °F 32.8 °F 35.6 °F 100% 30.16 in 10.0 mi NW 3.5 mph - N/A   Clear
3:15 AM 35.6 °F 31.7 °F 35.6 °F 100% 30.17 in 10.0 mi NNW 4.6 mph - N/A   Clear
3:55 AM 35.6 °F - 35.6 °F 100% 30.17 in 10.0 mi Calm Calm - N/A   Clear
4:15 AM 33.8 °F - 33.8 °F 100% 30.16 in 10.0 mi Calm Calm - N/A   Clear
4:35 AM 32.0 °F 28.7 °F 32.0 °F 100% 30.16 in 10.0 mi SSE 3.5 mph - N/A   Clear
4:55 AM 32.0 °F - 32.0 °F 100% 30.15 in 10.0 mi Calm Calm - N/A   Clear
5:15 AM 33.8 °F - 33.8 °F 100% 30.16 in 10.0 mi Calm Calm - N/A   Clear
5:35 AM 32.0 °F - 32.0 °F 100% 30.15 in 10.0 mi Calm Calm - N/A   Clear
5:55 AM 32.0 °F - 32.0 °F 100% 30.15 in 10.0 mi Calm Calm - N/A   Clear
6:15 AM 32.0 °F - 32.0 °F 100% 30.15 in 10.0 mi Calm Calm - N/A   Clear
6:35 AM 32.0 °F - 32.0 °F 100% 30.14 in 10.0 mi Calm Calm - N/A   Clear
6:55 AM 32.0 °F - 32.0 °F 100% 30.15 in 10.0 mi Calm Calm - N/A   Clear
7:15 AM 32.0 °F - 32.0 °F 100% 30.16 in 10.0 mi Calm Calm - N/A   Clear
7:35 AM 32.0 °F 28.7 °F 32.0 °F 100% 30.17 in 10.0 mi SSW 3.5 mph - N/A   Clear
7:55 AM 32.0 °F - 32.0 °F 100% 30.18 in 7.0 mi Calm Calm - N/A   Clear
8:15 AM 32.0 °F - 32.0 °F 100% 30.18 in 10.0 mi Calm Calm - N/A   Clear
8:35 AM 33.8 °F - 33.8 °F 100% 30.20 in 7.0 mi Calm Calm - N/A   Clear
8:55 AM 35.6 °F - 35.6 °F 100% 30.21 in 7.0 mi Calm Calm - N/A   Clear
9:35 AM 42.8 °F - 39.2 °F 87% 30.22 in 10.0 mi Calm Calm - N/A   Clear
9:55 AM 42.8 °F - 39.2 °F 87% 30.23 in 10.0 mi Calm Calm - N/A   Clear
10:15 AM 44.6 °F - 39.2 °F 81% 30.23 in 10.0 mi Calm Calm - N/A   Clear
10:35 AM 46.4 °F - 37.4 °F 71% 30.23 in 10.0 mi Calm Calm - N/A   Clear
10:55 AM 48.2 °F - 37.4 °F 66% 30.23 in 10.0 mi Calm Calm - N/A   Clear
11:15 AM 50.0 °F - 37.4 °F 62% 30.23 in 10.0 mi WNW 3.5 mph - N/A   Clear
11:35 AM 51.8 °F - 37.4 °F 58% 30.23 in 10.0 mi West 3.5 mph - N/A   Clear
11:55 AM 53.6 °F - 37.4 °F 54% 30.23 in 10.0 mi West 5.8 mph - N/A   Clear
12:15 PM 53.6 °F - 37.4 °F 54% 30.23 in 10.0 mi WNW 4.6 mph - N/A   Clear
12:35 PM 53.6 °F - 35.6 °F 51% 30.22 in 10.0 mi WSW 4.6 mph - N/A   Clear
1:35 PM 57.2 °F - 32.0 °F 38% 30.20 in 10.0 mi NNW 5.8 mph - N/A   Clear
1:55 PM 59.0 °F - 32.0 °F 36% 30.18 in 10.0 mi North 8.1 mph - N/A   Clear
2:15 PM 59.0 °F - 32.0 °F 36% 30.18 in 10.0 mi NNW 6.9 mph - N/A   Clear
2:35 PM 59.0 °F - 32.0 °F 36% 30.17 in 10.0 mi NNW 6.9 mph 16.1 mph N/A   Clear
2:55 PM 59.0 °F - 32.0 °F 36% 30.16 in 10.0 mi NW 8.1 mph - N/A   Clear
3:15 PM 59.0 °F - 30.2 °F 34% 30.16 in 10.0 mi NW 3.5 mph 9.2 mph N/A   Clear
3:35 PM 60.8 °F - 30.2 °F 31% 30.15 in 10.0 mi NW 9.2 mph - N/A   Clear
3:55 PM 60.8 °F - 28.4 °F 29% 30.14 in 10.0 mi NW 11.5 mph 18.4 mph N/A   Clear
4:15 PM 60.8 °F - 28.4 °F 29% 30.14 in 10.0 mi North 9.2 mph - N/A   Clear
4:35 PM 60.8 °F - 28.4 °F 29% 30.14 in 10.0 mi North 9.2 mph - N/A   Clear
4:55 PM 60.8 °F - 28.4 °F 29% 30.14 in 10.0 mi NNW 10.4 mph - N/A   Clear
5:15 PM 59.0 °F - 28.4 °F 31% 30.14 in 10.0 mi North 6.9 mph - N/A   Clear
5:35 PM 59.0 °F - 28.4 °F 31% 30.14 in 10.0 mi NW 6.9 mph - N/A   Clear
5:55 PM 59.0 °F - 28.4 °F 31% 30.14 in 10.0 mi NNW 5.8 mph - N/A   Clear
6:15 PM 55.4 °F - 28.4 °F 36% 30.14 in 10.0 mi NNW 3.5 mph - N/A   Clear
6:35 PM 51.8 °F - 32.0 °F 47% 30.15 in 10.0 mi Calm Calm - N/A   Clear
6:55 PM 46.4 °F - 35.6 °F 66% 30.15 in 10.0 mi Calm Calm - N/A   Clear
7:15 PM 46.4 °F - 35.6 °F 66% 30.16 in 10.0 mi Calm Calm - N/A   Clear
7:35 PM 42.8 °F - 35.6 °F 76% 30.16 in 10.0 mi Calm Calm - N/A   Clear
7:55 PM 42.8 °F - 35.6 °F 76% 30.16 in 10.0 mi Calm Calm - N/A   Clear
8:15 PM 41.0 °F 38.0 °F 35.6 °F 81% 30.16 in 10.0 mi SSW 4.6 mph - N/A   Clear
8:35 PM 41.0 °F - 35.6 °F 81% 30.17 in 10.0 mi Calm Calm - N/A   Clear
8:55 PM 39.2 °F - 35.6 °F 87% 30.17 in 10.0 mi Calm Calm - N/A   Clear
9:15 PM 37.4 °F - 35.6 °F 93% 30.17 in 10.0 mi Calm Calm - N/A   Clear
9:35 PM 39.2 °F - 35.6 °F 87% 30.17 in 10.0 mi Calm Calm - N/A   Clear
9:55 PM 37.4 °F - 35.6 °F 93% 30.18 in 10.0 mi Calm Calm - N/A   Clear
10:15 PM 35.6 °F - 35.6 °F 100% 30.18 in 10.0 mi Calm Calm - N/A   Clear
10:35 PM 37.4 °F - 35.6 °F 93% 30.18 in 10.0 mi Calm Calm - N/A   Clear
10:55 PM 35.6 °F - 33.8 °F 93% 30.18 in 10.0 mi Calm Calm - N/A   Clear
11:15 PM 35.6 °F 32.8 °F 35.6 °F 100% 30.18 in 10.0 mi ESE 3.5 mph - N/A   Clear
11:35 PM 35.6 °F - 35.6 °F 100% 30.18 in 10.0 mi Calm Calm - N/A   Clear
11:55 PM 33.8 °F - 33.8 °F 100% 30.19 in 10.0 mi Calm Calm - N/A   Clear